| time (UTC) | temp F | wind direction | speed MPH | gust MPH | rain 1hr in | rain 24hr in | rain mn in | humidity % | barometer mb |
| 20260506191425 | 49 | 254 | 0.0 | 0.0 | 0.00 | 0.00 | 0.00 | 79 | 1005.7 |
| 20260506190925 | 49 | 254 | 0.0 | 0.0 | 0.00 | 0.00 | 0.00 | 79 | 1005.7 |
| 20260506190413 | 49 | 254 | 0.0 | 0.0 | 0.00 | 0.00 | 0.00 | 79 | 1005.7 |
| 20260506185911 | 50 | 254 | 0.0 | 0.0 | 0.00 | 0.00 | 0.00 | 79 | 1005.6 |
| 20260506185412 | 50 | 254 | 0.0 | 0.0 | 0.00 | 0.00 | 0.00 | 79 | 1005.6 |
| 20260506184910 | 50 | 254 | 0.0 | 0.0 | 0.00 | 0.00 | 0.00 | 79 | 1005.6 |
| 20260506184409 | 51 | 254 | 0.0 | 0.0 | 0.00 | 0.00 | 0.00 | 79 | 1005.4 |
| 20260506184133 | 51 | 254 | 0.0 | 0.0 | 0.00 | 0.00 | 0.00 | 79 | 1005.4 |
| 20260506183405 | 51 | 254 | 0.0 | 0.0 | 0.00 | 0.00 | 0.00 | 79 | 1005.4 |
| 20260506183136 | 51 | 254 | 0.0 | 0.0 | 0.00 | 0.00 | 0.00 | 80 | 1005.4 |
| 20260506182627 | 52 | 254 | 0.0 | 0.0 | 0.00 | 0.00 | 0.00 | 80 | 1005.4 |
| 20260506181903 | 52 | 254 | 0.0 | 0.0 | 0.00 | 0.00 | 0.00 | 80 | 1005.4 |
| 20260506181850 | 52 | 254 | 0.0 | 0.0 | 0.00 | 0.00 | 0.00 | 80 | 1005.3 |
| 20260506180904 | 52 | 254 | 0.0 | 0.0 | 0.00 | 0.00 | 0.00 | 80 | 1005.3 |
| 20260506180404 | 52 | 254 | 0.0 | 0.0 | 0.00 | 0.00 | 0.00 | 79 | 1005.3 |
| 20260506175904 | 52 | 254 | 0.0 | 0.0 | 0.00 | 0.00 | 0.00 | 79 | 1005.1 |
| 20260506175403 | 52 | 254 | 0.0 | 0.0 | 0.00 | 0.00 | 0.00 | 79 | 1005.1 |
| 20260506174904 | 53 | 254 | 0.0 | 0.0 | 0.00 | 0.00 | 0.00 | 79 | 1005.1 |
| 20260506174403 | 53 | 254 | 0.0 | 0.0 | 0.00 | 0.00 | 0.00 | 78 | 1005.0 |
| 20260506173903 | 53 | 254 | 0.0 | 0.0 | 0.00 | 0.00 | 0.00 | 78 | 1005.0 |
| 20260506173404 | 53 | 254 | 0.0 | 1.0 | 0.00 | 0.00 | 0.00 | 78 | 1005.0 |
| 20260506172904 | 53 | 255 | 0.0 | 1.0 | 0.00 | 0.00 | 0.00 | 78 | 1004.9 |
| 20260506172403 | 53 | 255 | 0.0 | 1.0 | 0.00 | 0.00 | 0.00 | 78 | 1004.9 |
| 20260506171904 | 53 | 255 | 0.0 | 2.0 | 0.00 | 0.00 | 0.00 | 77 | 1004.9 |
| 20260506171403 | 53 | 236 | 0.0 | 2.0 | 0.00 | 0.00 | 0.00 | 78 | 1004.9 |
| 20260506170903 | 53 | 223 | 0.0 | 2.0 | 0.00 | 0.00 | 0.00 | 78 | 1004.9 |
| 20260506170404 | 53 | 277 | 0.0 | 2.0 | 0.00 | 0.00 | 0.00 | 79 | 1004.9 |
| 20260506165904 | 53 | 248 | 0.0 | 2.0 | 0.00 | 0.00 | 0.00 | 79 | 1004.9 |
| 20260506165404 | 53 | 237 | 0.0 | 1.0 | 0.00 | 0.00 | 0.00 | 78 | 1004.9 |
| 20260506164903 | 53 | 236 | 0.0 | 2.0 | 0.00 | 0.00 | 0.00 | 78 | 1004.9 |
| 20260506164403 | 53 | 169 | 0.0 | 2.0 | 0.00 | 0.00 | 0.00 | 78 | 1004.9 |
| 20260506163903 | 53 | 216 | 0.0 | 2.0 | 0.00 | 0.00 | 0.00 | 79 | 1004.9 |
| 20260506163404 | 53 | 260 | 0.0 | 2.0 | 0.00 | 0.00 | 0.00 | 79 | 1004.9 |
| 20260506162905 | 53 | 254 | 0.0 | 3.0 | 0.00 | 0.00 | 0.00 | 79 | 1004.9 |
| 20260506162405 | 53 | 192 | 1.0 | 3.0 | 0.00 | 0.00 | 0.00 | 79 | 1004.9 |
| 20260506161905 | 53 | 259 | 1.0 | 4.0 | 0.00 | 0.00 | 0.00 | 79 | 1004.9 |
| 20260506161404 | 53 | 252 | 1.0 | 4.0 | 0.00 | 0.00 | 0.00 | 79 | 1004.9 |
| 20260506160905 | 53 | 248 | 1.0 | 7.0 | 0.00 | 0.00 | 0.00 | 80 | 1004.9 |
| 20260506160404 | 53 | 240 | 2.0 | 8.0 | 0.00 | 0.00 | 0.00 | 80 | 1004.9 |
| 20260506160128 | 53 | 239 | 1.0 | 8.0 | 0.00 | 0.00 | 0.00 | 81 | 1005.0 |
| 20260506155403 | 53 | 266 | 1.0 | 3.0 | 0.00 | 0.00 | 0.00 | 81 | 1005.0 |
| 20260506154904 | 53 | 277 | 0.0 | 2.0 | 0.00 | 0.00 | 0.00 | 82 | 1005.0 |
| 20260506154403 | 53 | 239 | 1.0 | 2.0 | 0.00 | 0.00 | 0.00 | 82 | 1005.0 |
| 20260506154130 | 53 | 196 | 1.0 | 3.0 | 0.00 | 0.00 | 0.00 | 82 | 1005.0 |
| 20260506153631 | 53 | 284 | 1.0 | 5.0 | 0.00 | 0.00 | 0.00 | 82 | 1005.0 |
| 20260506152904 | 53 | 245 | 1.0 | 5.0 | 0.00 | 0.00 | 0.00 | 82 | 1005.0 |
| 20260506152403 | 53 | 176 | 1.0 | 4.0 | 0.00 | 0.00 | 0.00 | 82 | 1005.0 |
| 20260506151904 | 53 | 254 | 1.0 | 4.0 | 0.00 | 0.00 | 0.00 | 82 | 1005.0 |
| 20260506151403 | 53 | 259 | 1.0 | 3.0 | 0.00 | 0.00 | 0.00 | 81 | 1005.1 |
| 20260506150903 | 52 | 227 | 1.0 | 4.0 | 0.00 | 0.00 | 0.00 | 81 | 1005.1 |
| 20260506150403 | 52 | 244 | 1.0 | 4.0 | 0.00 | 0.00 | 0.00 | 82 | 1005.1 |
| 20260506145903 | 52 | 248 | 1.0 | 5.0 | 0.00 | 0.00 | 0.00 | 81 | 1004.9 |
| 20260506145403 | 52 | 260 | 1.0 | 5.0 | 0.00 | 0.00 | 0.00 | 81 | 1004.9 |
| 20260506144904 | 52 | 292 | 1.0 | 3.0 | 0.00 | 0.00 | 0.00 | 82 | 1004.9 |
| 20260506144403 | 52 | 261 | 1.0 | 6.0 | 0.00 | 0.00 | 0.00 | 82 | 1004.9 |
| 20260506143903 | 52 | 267 | 2.0 | 8.0 | 0.00 | 0.00 | 0.00 | 81 | 1004.9 |
| 20260506143403 | 52 | 265 | 2.0 | 10.0 | 0.00 | 0.00 | 0.00 | 81 | 1004.9 |
| 20260506142903 | 52 | 195 | 2.0 | 10.0 | 0.00 | 0.00 | 0.00 | 80 | 1004.9 |
| 20260506142404 | 52 | 163 | 1.0 | 5.0 | 0.00 | 0.00 | 0.00 | 81 | 1004.9 |
| 20260506141903 | 52 | 205 | 1.0 | 5.0 | 0.00 | 0.00 | 0.00 | 82 | 1004.9 |
| 20260506141403 | 52 | 329 | 1.0 | 4.0 | 0.00 | 0.00 | 0.00 | 82 | 1004.9 |
| 20260506140903 | 52 | 130 | 1.0 | 3.0 | 0.00 | 0.00 | 0.00 | 82 | 1004.9 |
| 20260506140403 | 52 | 201 | 1.0 | 7.0 | 0.00 | 0.00 | 0.00 | 83 | 1004.9 |
| 20260506135903 | 52 | 256 | 1.0 | 7.0 | 0.00 | 0.00 | 0.00 | 83 | 1004.9 |
| 20260506135404 | 52 | 255 | 1.0 | 2.0 | 0.00 | 0.00 | 0.00 | 83 | 1004.9 |
| 20260506135353 | 52 | 238 | 1.0 | 2.0 | 0.00 | 0.00 | 0.00 | 83 | 1004.9 |
| 20260506134404 | 52 | 235 | 1.0 | 5.0 | 0.00 | 0.00 | 0.00 | 84 | 1004.9 |
| 20260506133903 | 52 | 281 | 1.0 | 5.0 | 0.00 | 0.00 | 0.00 | 85 | 1004.9 |
| 20260506133403 | 52 | 259 | 1.0 | 5.0 | 0.00 | 0.00 | 0.00 | 86 | 1004.9 |
| 20260506132903 | 52 | 251 | 1.0 | 5.0 | 0.00 | 0.00 | 0.00 | 85 | 1004.9 |
| 20260506132405 | 52 | 267 | 1.0 | 5.0 | 0.00 | 0.00 | 0.00 | 86 | 1004.9 |
| 20260506131904 | 52 | 288 | 1.0 | 6.0 | 0.00 | 0.00 | 0.00 | 85 | 1004.9 |
| 20260506131628 | 52 | 188 | 1.0 | 6.0 | 0.00 | 0.00 | 0.00 | 84 | 1004.9 |
| 20260506130903 | 52 | 246 | 2.0 | 9.0 | 0.00 | 0.00 | 0.00 | 84 | 1004.9 |
| 20260506130404 | 52 | 225 | 2.0 | 9.0 | 0.00 | 0.00 | 0.00 | 83 | 1004.9 |
| 20260506125903 | 52 | 298 | 1.0 | 5.0 | 0.00 | 0.00 | 0.00 | 85 | 1004.9 |
| 20260506125406 | 52 | 212 | 1.0 | 6.0 | 0.00 | 0.00 | 0.00 | 84 | 1004.9 |
| 20260506125359 | 52 | 223 | 2.0 | 10.0 | 0.00 | 0.00 | 0.00 | 85 | 1004.9 |
| 20260506124404 | 52 | 288 | 2.0 | 10.0 | 0.00 | 0.00 | 0.00 | 84 | 1004.5 |
| 20260506123904 | 52 | 303 | 2.0 | 10.0 | 0.00 | 0.00 | 0.00 | 84 | 1004.5 |
| 20260506123403 | 52 | 261 | 2.0 | 7.0 | 0.00 | 0.00 | 0.00 | 85 | 1004.5 |
| 20260506122903 | 52 | 258 | 1.0 | 7.0 | 0.00 | 0.00 | 0.00 | 85 | 1004.1 |
| 20260506122405 | 52 | 271 | 1.0 | 7.0 | 0.00 | 0.00 | 0.00 | 86 | 1004.1 |
| 20260506121905 | 52 | 196 | 2.0 | 7.0 | 0.00 | 0.00 | 0.00 | 86 | 1004.1 |
| 20260506121628 | 51 | 230 | 2.0 | 6.0 | 0.00 | 0.00 | 0.00 | 89 | 1004.3 |
| 20260506120904 | 51 | 277 | 1.0 | 6.0 | 0.00 | 0.00 | 0.00 | 90 | 1004.3 |
| 20260506120629 | 51 | 227 | 1.0 | 6.0 | 0.00 | 0.00 | 0.00 | 90 | 1004.3 |
| 20260506120357 | 51 | 276 | 2.0 | 7.0 | 0.00 | 0.00 | 0.00 | 90 | 1004.3 |
| 20260506115626 | 51 | 284 | 2.0 | 7.0 | 0.00 | 0.00 | 0.00 | 91 | 1004.3 |
| 20260506114903 | 51 | 271 | 2.0 | 8.0 | 0.00 | 0.00 | 0.00 | 93 | 1004.3 |
| 20260506114404 | 51 | 254 | 3.0 | 8.0 | 0.00 | 0.00 | 0.00 | 94 | 1004.2 |
| 20260506113917 | 51 | 199 | 3.0 | 8.0 | 0.00 | 0.00 | 0.00 | 94 | 1004.2 |
| 20260506113627 | 52 | 280 | 2.0 | 8.0 | 0.00 | 0.00 | 0.00 | 95 | 1004.2 |
| 20260506112904 | 52 | 225 | 0.0 | 4.0 | 0.00 | 0.00 | 0.00 | 96 | 1004.2 |
| 20260506112404 | 51 | 233 | 0.0 | 2.0 | 0.00 | 0.00 | 0.00 | 96 | 1004.2 |
| 20260506111904 | 51 | 240 | 0.0 | 4.0 | 0.00 | 0.00 | 0.00 | 96 | 1004.2 |
| 20260506111404 | 50 | 204 | 0.0 | 4.0 | 0.00 | 0.00 | 0.00 | 96 | 1004.4 |
| 20260506110916 | 50 | 178 | 0.0 | 2.0 | 0.00 | 0.00 | 0.00 | 95 | 1004.4 |
| 20260506110402 | 50 | 211 | 0.0 | 2.0 | 0.00 | 0.00 | 0.00 | 95 | 1004.4 |
| 20260506105902 | 50 | 228 | 1.0 | 2.0 | 0.00 | 0.00 | 0.00 | 95 | 1004.4 |
| 20260506105403 | 50 | 260 | 0.0 | 2.0 | 0.00 | 0.00 | 0.00 | 95 | 1004.4 |
| 20260506104904 | 50 | 246 | 1.0 | 2.0 | 0.00 | 0.00 | 0.00 | 94 | 1004.4 |
| 20260506104402 | 50 | 251 | 1.0 | 7.0 | 0.00 | 0.00 | 0.00 | 94 | 1004.5 |
| 20260506103902 | 50 | 263 | 1.0 | 7.0 | 0.00 | 0.00 | 0.00 | 94 | 1004.5 |
| 20260506103400 | 50 | 259 | 1.0 | 4.0 | 0.00 | 0.00 | 0.00 | 94 | 1004.5 |
| 20260506103332 | 50 | 238 | 1.0 | 4.0 | 0.00 | 0.00 | 0.00 | 94 | 1004.4 |
| 20260506102348 | 51 | 278 | 1.0 | 5.0 | 0.00 | 0.00 | 0.00 | 94 | 1004.4 |
| 20260506101358 | 51 | 279 | 2.0 | 5.0 | 0.00 | 0.00 | 0.00 | 93 | 1004.2 |
| 20260506100856 | 51 | 227 | 1.0 | 5.0 | 0.00 | 0.00 | 0.00 | 94 | 1004.2 |
| 20260506100356 | 51 | 233 | 2.0 | 12.0 | 0.00 | 0.00 | 0.00 | 93 | 1004.2 |
| 20260506095856 | 51 | 190 | 2.0 | 12.0 | 0.00 | 0.00 | 0.00 | 93 | 1003.8 |
| 20260506095358 | 52 | 213 | 1.0 | 6.0 | 0.00 | 0.00 | 0.00 | 92 | 1003.8 |
| 20260506094857 | 52 | 242 | 1.0 | 5.0 | 0.00 | 0.00 | 0.00 | 92 | 1003.8 |
| 20260506094350 | 52 | 272 | 2.0 | 7.0 | 0.00 | 0.00 | 0.00 | 92 | 1003.4 |
| 20260506093838 | 53 | 201 | 1.0 | 7.0 | 0.00 | 0.00 | 0.00 | 92 | 1003.4 |
| 20260506093334 | 53 | 214 | 0.0 | 0.0 | 0.00 | 0.00 | 0.00 | 91 | 1003.4 |
| 20260506092835 | 53 | 258 | 0.0 | 0.0 | 0.00 | 0.00 | 0.00 | 91 | 1003.4 |
| 20260506092540 | 53 | 198 | 0.0 | 0.0 | 0.00 | 0.00 | 0.00 | 90 | 1003.4 |
| 20260506091334 | 53 | 202 | 0.0 | 0.0 | 0.00 | 0.00 | 0.00 | 89 | 1003.0 |
| 20260506090834 | 53 | 250 | 0.0 | 0.0 | 0.00 | 0.00 | 0.00 | 89 | 1003.0 |
| 20260506090334 | 53 | 250 | 0.0 | 0.0 | 0.00 | 0.00 | 0.00 | 88 | 1003.0 |
| 20260506085832 | 53 | 250 | 0.0 | 0.0 | 0.00 | 0.00 | 0.00 | 88 | 1002.7 |
| 20260506085332 | 53 | 256 | 0.0 | 0.0 | 0.00 | 0.00 | 0.00 | 87 | 1002.7 |
| 20260506084832 | 53 | 238 | 0.0 | 0.0 | 0.00 | 0.00 | 0.00 | 86 | 1002.7 |
| 20260506084332 | 53 | 227 | 0.0 | 0.0 | 0.00 | 0.00 | 0.00 | 86 | 1002.6 |
| 20260506083833 | 53 | 186 | 0.0 | 0.0 | 0.00 | 0.00 | 0.00 | 85 | 1002.6 |
| 20260506083331 | 54 | 235 | 0.0 | 0.0 | 0.00 | 0.00 | 0.00 | 85 | 1002.6 |
| 20260506082831 | 54 | 215 | 0.0 | 0.0 | 0.00 | 0.00 | 0.00 | 85 | 1002.3 |
| 20260506082345 | 54 | 215 | 0.0 | 0.0 | 0.00 | 0.00 | 0.00 | 85 | 1002.3 |
| 20260506081832 | 54 | 227 | 0.0 | 0.0 | 0.00 | 0.00 | 0.00 | 85 | 1002.3 |
| 20260506081332 | 54 | 248 | 0.0 | 0.0 | 0.00 | 0.00 | 0.00 | 85 | 1002.2 |
| 20260506080832 | 54 | 197 | 0.0 | 0.0 | 0.00 | 0.00 | 0.00 | 85 | 1002.2 |
| 20260506080332 | 54 | 166 | 0.0 | 0.0 | 0.00 | 0.00 | 0.00 | 85 | 1002.2 |
| 20260506073333 | 53 | 212 | 0.0 | 0.0 | 0.00 | 0.00 | 0.00 | 85 | 1002.1 |
| 20260506072832 | 53 | 244 | 0.0 | 0.0 | 0.00 | 0.00 | 0.00 | 86 | 1002.1 |
| 20260506072333 | 53 | 163 | 0.0 | 0.0 | 0.00 | 0.00 | 0.00 | 86 | 1002.1 |
| 20260506072059 | 53 | 242 | 0.0 | 0.0 | 0.00 | 0.00 | 0.00 | 86 | 1002.1 |
| 20260506071558 | 53 | 216 | 0.0 | 0.0 | 0.00 | 0.00 | 0.00 | 87 | 1002.2 |
| 20260506070832 | 53 | 205 | 0.0 | 0.0 | 0.00 | 0.00 | 0.00 | 88 | 1002.2 |
| 20260506070333 | 52 | 237 | 0.0 | 0.0 | 0.00 | 0.00 | 0.00 | 89 | 1002.2 |
| 20260506062333 | 52 | 234 | 0.0 | 0.0 | 0.00 | 0.00 | 0.00 | 90 | 1002.3 |
| 20260506061832 | 52 | 263 | 0.0 | 0.0 | 0.00 | 0.00 | 0.00 | 91 | 1002.3 |
| 20260506061333 | 52 | 260 | 0.0 | 0.0 | 0.00 | 0.00 | 0.00 | 91 | 1002.2 |
| 20260506060833 | 52 | 261 | 0.0 | 0.0 | 0.00 | 0.00 | 0.00 | 91 | 1002.2 |
| 20260506060346 | 52 | 254 | 0.0 | 0.0 | 0.00 | 0.00 | 0.00 | 92 | 1002.2 |
| 20260506051331 | 50 | 213 | 0.0 | 0.0 | 0.00 | 0.00 | 0.00 | 93 | 1002.6 |
| 20260506051059 | 50 | 213 | 0.0 | 0.0 | 0.00 | 0.00 | 0.00 | 93 | 1002.6 |
| 20260506050332 | 50 | 213 | 0.0 | 0.0 | 0.00 | 0.00 | 0.00 | 93 | 1002.6 |
| 20260506050317 | 50 | 213 | 0.0 | 0.0 | 0.00 | 0.00 | 0.00 | 93 | 1002.6 |
| 20260506045057 | 50 | 213 | 0.0 | 0.0 | 0.00 | 0.00 | 0.00 | 93 | 1002.6 |
| 20260506044332 | 50 | 213 | 0.0 | 0.0 | 0.00 | 0.00 | 0.00 | 93 | 1002.3 |
| 20260506043832 | 50 | 213 | 0.0 | 0.0 | 0.00 | 0.00 | 0.00 | 93 | 1002.3 |
| 20260506043824 | 50 | 213 | 0.0 | 0.0 | 0.00 | 0.00 | 0.00 | 93 | 1002.3 |
| 20260506042831 | 50 | 213 | 0.0 | 0.0 | 0.00 | 0.00 | 0.00 | 93 | 1002.3 |
| 20260506042331 | 50 | 213 | 0.0 | 0.0 | 0.00 | 0.00 | 0.00 | 93 | 1002.3 |
| 20260506041832 | 50 | 213 | 0.0 | 0.0 | 0.00 | 0.00 | 0.00 | 93 | 1002.3 |
| 20260506041344 | 50 | 213 | 0.0 | 0.0 | 0.00 | 0.00 | 0.00 | 93 | 1002.2 |
| 20260506041103 | 50 | 213 | 0.0 | 0.0 | 0.00 | 0.00 | 0.00 | 93 | 1002.2 |
| 20260506040333 | 49 | 207 | 0.0 | 0.0 | 0.00 | 0.00 | 0.00 | 93 | 1002.2 |
| 20260506035831 | 49 | 207 | 0.0 | 0.0 | 0.00 | 0.00 | 0.00 | 93 | 1002.6 |
| 20260506035554 | 49 | 207 | 0.0 | 0.0 | 0.00 | 0.00 | 0.00 | 93 | 1002.6 |
| 20260506035058 | 49 | 207 | 0.0 | 0.0 | 0.00 | 0.00 | 0.00 | 92 | 1002.6 |
| 20260506034331 | 49 | 207 | 0.0 | 0.0 | 0.00 | 0.00 | 0.00 | 92 | 1002.7 |
| 20260506033832 | 49 | 207 | 0.0 | 0.0 | 0.00 | 0.00 | 0.00 | 92 | 1002.7 |
| 20260506033331 | 49 | 207 | 0.0 | 0.0 | 0.00 | 0.00 | 0.00 | 92 | 1002.7 |
| 20260506032832 | 49 | 207 | 0.0 | 0.0 | 0.00 | 0.00 | 0.00 | 92 | 1002.8 |
| 20260506032332 | 48 | 207 | 0.0 | 0.0 | 0.00 | 0.00 | 0.00 | 92 | 1002.8 |
| 20260506031831 | 48 | 207 | 0.0 | 0.0 | 0.00 | 0.00 | 0.00 | 92 | 1002.8 |
| 20260506031555 | 48 | 207 | 0.0 | 0.0 | 0.00 | 0.00 | 0.00 | 91 | 1002.8 |
| 20260506030828 | 48 | 207 | 0.0 | 0.0 | 0.00 | 0.00 | 0.00 | 91 | 1002.8 |
| 20260506030328 | 48 | 207 | 0.0 | 0.0 | 0.00 | 0.00 | 0.00 | 91 | 1002.8 |
| 20260506025829 | 48 | 207 | 0.0 | 0.0 | 0.00 | 0.00 | 0.00 | 91 | 1003.3 |
| 20260506025549 | 48 | 207 | 0.0 | 0.0 | 0.00 | 0.00 | 0.00 | 90 | 1003.3 |
| 20260506024825 | 48 | 207 | 0.0 | 0.0 | 0.00 | 0.00 | 0.00 | 90 | 1003.3 |
| 20260506024323 | 49 | 207 | 0.0 | 0.0 | 0.00 | 0.00 | 0.00 | 90 | 1003.4 |
| 20260506023821 | 49 | 207 | 0.0 | 0.0 | 0.00 | 0.00 | 0.00 | 90 | 1003.4 |
| 20260506023319 | 49 | 207 | 0.0 | 0.0 | 0.00 | 0.00 | 0.00 | 90 | 1003.4 |
| 20260506022816 | 49 | 207 | 0.0 | 0.0 | 0.00 | 0.00 | 0.00 | 90 | 1003.4 |
| 20260506022808 | 49 | 207 | 0.0 | 0.0 | 0.00 | 0.00 | 0.00 | 90 | 1003.4 |
| 20260506021813 | 49 | 207 | 0.0 | 0.0 | 0.00 | 0.00 | 0.00 | 90 | 1003.4 |
| 20260506021313 | 49 | 207 | 0.0 | 0.0 | 0.00 | 0.00 | 0.00 | 89 | 1003.4 |
| 20260506020812 | 50 | 207 | 0.0 | 0.0 | 0.00 | 0.00 | 0.00 | 89 | 1003.4 |
| 20260506020542 | 50 | 207 | 0.0 | 0.0 | 0.00 | 0.00 | 0.00 | 89 | 1003.4 |
| 20260506015808 | 50 | 207 | 0.0 | 0.0 | 0.00 | 0.00 | 0.00 | 89 | 1003.8 |
| 20260506015532 | 51 | 207 | 0.0 | 0.0 | 0.00 | 0.00 | 0.00 | 89 | 1003.8 |
| 20260506014809 | 51 | 207 | 0.0 | 0.0 | 0.00 | 0.00 | 0.00 | 89 | 1003.8 |
| 20260506014306 | 51 | 207 | 0.0 | 0.0 | 0.00 | 0.00 | 0.00 | 89 | 1003.9 |
| 20260506013805 | 51 | 207 | 0.0 | 0.0 | 0.00 | 0.00 | 0.00 | 89 | 1003.9 |
| 20260506013304 | 51 | 207 | 0.0 | 0.0 | 0.00 | 0.00 | 0.00 | 89 | 1003.9 |
| 20260506012804 | 51 | 207 | 0.0 | 0.0 | 0.00 | 0.00 | 0.00 | 89 | 1003.9 |
| 20260506012259 | 52 | 207 | 0.0 | 0.0 | 0.00 | 0.00 | 0.00 | 89 | 1003.9 |
| 20260506011748 | 52 | 207 | 0.0 | 0.0 | 0.00 | 0.00 | 0.00 | 89 | 1003.9 |
| 20260506011509 | 52 | 207 | 0.0 | 0.0 | 0.00 | 0.00 | 0.00 | 89 | 1003.9 |
| 20260506010736 | 52 | 207 | 0.0 | 0.0 | 0.00 | 0.00 | 0.00 | 89 | 1003.9 |
| 20260506010500 | 52 | 207 | 0.0 | 0.0 | 0.00 | 0.00 | 0.00 | 89 | 1003.9 |
| 20260506010008 | 52 | 207 | 0.0 | 0.0 | 0.00 | 0.00 | 0.00 | 89 | 1004.4 |
| 20260506005719 | 52 | 207 | 0.0 | 0.0 | 0.00 | 0.00 | 0.00 | 89 | 1004.4 |
| 20260506005004 | 52 | 207 | 0.0 | 0.0 | 0.00 | 0.00 | 0.00 | 88 | 1004.4 |
| 20260506004232 | 52 | 207 | 0.0 | 0.0 | 0.00 | 0.00 | 0.00 | 88 | 1004.8 |
| 20260506003735 | 52 | 207 | 0.0 | 0.0 | 0.00 | 0.00 | 0.00 | 88 | 1004.8 |
| 20260506003232 | 52 | 207 | 0.0 | 0.0 | 0.00 | 0.00 | 0.00 | 88 | 1004.8 |
| 20260506002734 | 52 | 207 | 0.0 | 0.0 | 0.00 | 0.00 | 0.00 | 88 | 1004.9 |
| 20260506002232 | 52 | 207 | 0.0 | 0.0 | 0.00 | 0.00 | 0.00 | 88 | 1004.9 |
| 20260506001733 | 52 | 207 | 0.0 | 0.0 | 0.00 | 0.00 | 0.00 | 88 | 1004.9 |
| 20260506001232 | 52 | 207 | 0.0 | 0.0 | 0.00 | 0.00 | 0.00 | 87 | 1004.9 |
| 20260506000732 | 52 | 207 | 0.0 | 0.0 | 0.00 | 0.00 | 0.00 | 87 | 1004.9 |
| 20260506000233 | 52 | 207 | 0.0 | 0.0 | 0.00 | 0.00 | 0.00 | 87 | 1004.9 |
| 20260505235744 | 52 | 207 | 0.0 | 0.0 | 0.00 | 0.00 | 0.00 | 87 | 1004.9 |
| 20260505235232 | 52 | 207 | 0.0 | 0.0 | 0.00 | 0.00 | 0.00 | 87 | 1004.9 |
| 20260505234732 | 52 | 207 | 0.0 | 0.0 | 0.00 | 0.00 | 0.00 | 86 | 1004.9 |
| 20260505234244 | 52 | 207 | 0.0 | 0.0 | 0.00 | 0.00 | 0.00 | 86 | 1005.0 |
| 20260505233959 | 52 | 207 | 0.0 | 0.0 | 0.00 | 0.00 | 0.00 | 86 | 1005.0 |
| 20260505233232 | 52 | 207 | 0.0 | 0.0 | 0.00 | 0.00 | 0.00 | 85 | 1005.0 |
| 20260505233006 | 52 | 207 | 0.0 | 0.0 | 0.00 | 0.00 | 0.00 | 85 | 1005.4 |
| 20260505232231 | 51 | 207 | 0.0 | 0.0 | 0.00 | 0.00 | 0.00 | 85 | 1005.4 |
| 20260505231958 | 51 | 207 | 0.0 | 0.0 | 0.00 | 0.00 | 0.00 | 85 | 1005.4 |
| 20260505231455 | 51 | 207 | 0.0 | 0.0 | 0.00 | 0.00 | 0.00 | 85 | 1005.4 |
| 20260505230731 | 51 | 207 | 0.0 | 0.0 | 0.00 | 0.00 | 0.00 | 84 | 1005.4 |
| 20260505230232 | 51 | 207 | 0.0 | 0.0 | 0.00 | 0.00 | 0.00 | 84 | 1005.4 |
| 20260505225732 | 51 | 207 | 0.0 | 0.0 | 0.00 | 0.00 | 0.00 | 84 | 1005.4 |
| 20260505225456 | 51 | 207 | 0.0 | 0.0 | 0.00 | 0.00 | 0.00 | 84 | 1005.4 |
| 20260505224959 | 51 | 207 | 0.0 | 0.0 | 0.00 | 0.00 | 0.00 | 83 | 1005.4 |
| 20260505224231 | 51 | 207 | 0.0 | 0.0 | 0.00 | 0.00 | 0.00 | 83 | 1005.4 |
| 20260505223731 | 52 | 207 | 0.0 | 0.0 | 0.00 | 0.00 | 0.00 | 83 | 1005.4 |
| 20260505223232 | 52 | 207 | 0.0 | 0.0 | 0.00 | 0.00 | 0.00 | 82 | 1005.4 |
| 20260505222732 | 52 | 207 | 0.0 | 0.0 | 0.00 | 0.00 | 0.00 | 82 | 1005.4 |
| 20260505222502 | 52 | 207 | 0.0 | 0.0 | 0.00 | 0.00 | 0.00 | 82 | 1005.4 |
| 20260505221732 | 52 | 207 | 0.0 | 0.0 | 0.00 | 0.00 | 0.00 | 82 | 1005.4 |
| 20260505221458 | 53 | 207 | 0.0 | 0.0 | 0.00 | 0.00 | 0.00 | 82 | 1005.4 |
| 20260505220731 | 53 | 207 | 0.0 | 0.0 | 0.00 | 0.00 | 0.00 | 82 | 1005.4 |
| 20260505220233 | 53 | 207 | 0.0 | 0.0 | 0.00 | 0.00 | 0.00 | 82 | 1005.4 |
| 20260505220000 | 53 | 207 | 0.0 | 0.0 | 0.00 | 0.00 | 0.00 | 82 | 1005.4 |
| 20260505215316 | 53 | 207 | 0.0 | 0.0 | 0.00 | 0.00 | 0.00 | 81 | 1005.4 |
| 20260505214743 | 52 | 207 | 0.0 | 0.0 | 0.00 | 0.00 | 0.00 | 81 | 1005.4 |
| 20260505214326 | 52 | 238 | 0.0 | 0.0 | 0.00 | 0.00 | 0.00 | 80 | 1005.3 |
| 20260505213842 | 52 | 238 | 0.0 | 0.0 | 0.00 | 0.00 | 0.00 | 81 | 1005.3 |
| 20260505213233 | 52 | 238 | 0.0 | 0.0 | 0.00 | 0.00 | 0.00 | 80 | 1005.3 |
| 20260505212733 | 52 | 238 | 0.0 | 0.0 | 0.00 | 0.00 | 0.00 | 80 | 1005.6 |
| 20260505212234 | 52 | 238 | 0.0 | 0.0 | 0.00 | 0.00 | 0.00 | 80 | 1005.6 |
| 20260505211732 | 52 | 238 | 0.0 | 0.0 | 0.00 | 0.00 | 0.00 | 80 | 1005.6 |
| 20260505211233 | 52 | 238 | 0.0 | 0.0 | 0.00 | 0.00 | 0.00 | 80 | 1005.7 |
| 20260505210733 | 52 | 238 | 0.0 | 0.0 | 0.00 | 0.00 | 0.00 | 80 | 1005.7 |
| 20260505210455 | 52 | 238 | 0.0 | 0.0 | 0.00 | 0.00 | 0.00 | 80 | 1005.7 |
| 20260505205733 | 52 | 238 | 0.0 | 0.0 | 0.00 | 0.00 | 0.00 | 80 | 1005.6 |
| 20260505205233 | 52 | 238 | 0.0 | 0.0 | 0.00 | 0.00 | 0.00 | 79 | 1005.6 |
| 20260505204733 | 52 | 238 | 0.0 | 0.0 | 0.00 | 0.00 | 0.00 | 79 | 1005.6 |
| 20260505204458 | 52 | 267 | 0.0 | 0.0 | 0.00 | 0.00 | 0.00 | 78 | 1005.4 |
| 20260505204217 | 52 | 267 | 0.0 | 0.0 | 0.00 | 0.00 | 0.00 | 78 | 1005.4 |
| 20260505203502 | 52 | 267 | 0.0 | 0.0 | 0.00 | 0.00 | 0.00 | 77 | 1005.4 |
| 20260505202733 | 52 | 267 | 0.0 | 0.0 | 0.00 | 0.00 | 0.00 | 77 | 1005.2 |
| 20260505202233 | 52 | 267 | 0.0 | 0.0 | 0.00 | 0.00 | 0.00 | 77 | 1005.2 |
| 20260505201733 | 52 | 267 | 0.0 | 1.0 | 0.00 | 0.00 | 0.00 | 77 | 1005.2 |
| 20260505201232 | 52 | 267 | 0.0 | 1.0 | 0.00 | 0.00 | 0.00 | 77 | 1005.0 |
| 20260505201001 | 52 | 267 | 0.0 | 0.0 | 0.00 | 0.00 | 0.00 | 77 | 1005.0 |
| 20260505200232 | 52 | 267 | 0.0 | 0.0 | 0.00 | 0.00 | 0.00 | 77 | 1005.0 |
| 20260505195733 | 52 | 267 | 0.0 | 0.0 | 0.00 | 0.00 | 0.00 | 77 | 1004.9 |
| 20260505195233 | 52 | 267 | 0.0 | 0.0 | 0.00 | 0.00 | 0.00 | 77 | 1004.9 |
| 20260505195002 | 52 | 267 | 0.0 | 0.0 | 0.00 | 0.00 | 0.00 | 76 | 1004.9 |
| 20260505194231 | 52 | 267 | 0.0 | 0.0 | 0.00 | 0.00 | 0.00 | 77 | 1004.9 |
| 20260505193731 | 52 | 267 | 0.0 | 0.0 | 0.00 | 0.00 | 0.00 | 76 | 1004.9 |
| 20260505193723 | 53 | 267 | 0.0 | 0.0 | 0.00 | 0.00 | 0.00 | 76 | 1004.9 |
| 20260505192745 | 53 | 267 | 0.0 | 0.0 | 0.00 | 0.00 | 0.00 | 76 | 1004.6 |
| 20260505192232 | 53 | 252 | 0.0 | 1.0 | 0.00 | 0.00 | 0.00 | 76 | 1004.6 |
| 20260505191732 | 53 | 252 | 0.0 | 1.0 | 0.00 | 0.00 | 0.00 | 76 | 1004.6 |